Location: Aldenham
(51.6667°N, 0.3500°W)
Time: 00:24:09
(UTC+00:00)

Altair - Pass Details

Date: 23 February 2026
Orbit: 1502 x 1682 km, 47.2° (Epoch: 10 March)

Event Time Altitude Azimuth Distance (km) Brightness Sun altitude
Rises 02:54:37 0° 216° (SW) 4,626 - -37.1°
Reaches altitude 10° 02:57:53 10° 208° (SSW) 3,646 - -36.7°
Exits shadow 03:05:34 37° 151° (SSE) 2,175 8.1 -35.7°
Maximum altitude 03:06:01 38° 145° (SE) 2,170 8.2 -35.6°
Drops below altitude 10° 03:14:18 10° 82° (E) 3,716 10.2 -34.6°
Sets 03:17:39 0° 75° (ENE) 4,723 11.0 -34.1°
